www.pogodaiklimat.ru
Время
(UTC), дата
22:56 29.12
23:56 29.12
00:56 29.12
01:56 29.12
02:56 29.12
03:56 29.12
04:56 29.12
05:56 29.12
06:56 29.12
07:56 30.12
08:56 30.12
09:56 30.12
10:56 30.12
11:56 30.12
12:56 30.12
13:56 30.12
14:56 30.12
15:56 30.12
16:56 30.12
17:56 30.12
18:56 30.12
19:56 30.12
20:56 30.12
21:56 30.12
22:56 30.12
23:56 30.12
00:56 30.12
01:56 30.12
02:56 30.12
03:56 30.12
04:56 30.12
05:56 30.12
06:56 30.12
07:56 31.12
08:56 31.12
09:56 31.12
10:56 31.12
11:56 31.12
12:56 31.12
13:56 31.12
14:56 31.12
15:56 31.12
16:56 31.12
17:56 31.12
18:56 31.12
19:56 31.12
20:56 31.12
21:56 31.12
Ветер
(напр.,м/с)
Видим. Явления Облачность Т
(С)
Тd
(С)
f
(%)
Тe
(С)
Тes
(С)
Комфортность P
(гПа)
Po
(гПа)
Тmin
(С)
Tmax
(С)
R
(мм)
R24
(мм)
S
(см)
В 1 16 км 8/0 3900 м
[средняя верхняя]
+7.2 -8.9 31 +6 +7 1021.3 942.7 +5.6 +8.3
0 16 км 10/0 3900 м
[средняя верхняя]
+7.2 -8.3 32 +7 +7 1021.1 942.4
В 2 16 км 10/0 3900 м
[средняя верхняя]
+6.7 -7.8 35 +5 +5 1021.1 942.4
В 1 16 км 10/0 3000 м
[средняя]
+6.7 -7.8 35 +6 +6 1021.0 942.4
В 1 16 км 10/0 3000 м
[средняя]
+6.7 -6.7 38 +6 +6 1020.9 942.4
0 16 км 10/0 2850 м
[средняя]
+6.1 -5.6 43 +6 +6 1020.8 942.4
В 2 16 км 8/0 2700 м
[средняя]
+5.6 -5.0 46 +3 +3 1020.7 942.4 +5.6 +7.2
0 16 км 10/0 3300 м
[средняя]
+5.0 -4.4 51 +5 +5 1020.4 942.1
З 2 16 км 8/0 3300 м
[средняя]
+5.0 -5.6 46 +3 +3 1020.3 942.1
З 2 16 км 8/0 2550 м
[средняя]
+3.9 -4.4 55 +1 +1 1020.3 941.7
0 16 км 8/0 2550 м
[средняя]
+3.3 -3.9 59 +3 +3 1020.5 942.1
0 16 км 8/0 2850 м
[средняя]
+3.3 -3.3 62 +3 +3 1020.6 942.1
ЮЗ 1 16 км 10/0 2700 м
[средняя]
+3.3 -3.9 59 +1 +1 1020.3 942.1 +3.3 +5.6
ЮЗ 1 16 км 10/0 2700 м
[средняя]
+3.9 -3.9 57 +2 +2 1020.5 942.1
З 1 16 км 8/0 2700 м
[средняя]
+3.3 -3.3 62 +1 +1 1020.7 942.4
З 1 16 км 8/0 3000 м
[средняя]
+3.3 -3.9 59 +1 +1 1021.3 942.7
0 16 км 5/0 3000 м
[средняя верхняя]
+4.4 -4.4 53 +4 +4 1021.9 943.3
0 16 км 5/0 3000 м
[средняя верхняя]
+6.1 -5.0 45 +6 +7 1022.5 943.9
0 16 км 5/0 3000 м
[средняя верхняя]
+8.3 -5.0 39 +8 +11 1022.4 943.9 +3.3 +8.3
0 16 км 5/0 3000 м
[средняя верхняя]
+8.9 -5.6 35 +9 +14 1021.3 943.0
СВ 4 16 км 2/0 4500 м
[средняя верхняя]
+10.0 -5.6 33 +8 +11 1020.0 942.1
СВ 3 16 км 2/0 4500 м
[средняя верхняя]
+10.6 -5.0 33 +9 +13 1019.0 941.1
С 4 16 км 5/0 4500 м
[средняя верхняя]
+11.1 -5.6 31 +9 +11 1018.6 940.5
СВ 3 16 км 5/0 4500 м
[средняя верхняя]
+11.7 -4.4 32 +10 +12 1018.4 940.5
С 3 16 км 2/0 4500 м
[средняя верхняя]
+11.7 -3.9 33 +10 +11 1018.6 940.8 +7.8 +11.7
СВ 1 16 км 2/0 4500 м
[средняя верхняя]
+10.0 -3.3 39 +10 +10 1018.8 940.8
В 3 16 км 2/0 4500 м
[средняя верхняя]
+9.4 -2.2 44 +7 +7 1019.0 940.8
С 3 16 км 2/0 4500 м
[средняя верхняя]
+8.3 -2.2 48 +6 +6 1019.3 941.1
СЗ 1 16 км 2/0 7500 м
[верхняя]
+7.8 -2.2 49 +7 +7 1019.7 941.4
нст 1 16 км 2/0 7500 м
[верхняя]
+8.3 -2.2 48 +7 +7 1019.9 941.7
0 16 км 5/0 7500 м
[верхняя]
+7.8 -1.7 51 +8 +8 1020.1 942.1 +7.2 +11.1
0 16 км 2/0 7500 м
[верхняя]
+6.1 -1.7 57 +6 +6 1020.5 942.4
0 16 км 2/0 7500 м
[верхняя]
+6.7 -1.7 55 +6 +6 1020.6 942.7
С 2 16 км 2/0 7500 м
[верхняя]
+6.7 -1.7 55 +4 +4 1020.5 942.7
0 16 км 2/0 7500 м
[верхняя]
+5.6 -1.7 59 +5 +5 1021.0 943.0
СВ 4 16 км 2/0 7500 м
[верхняя]
+5.6 -2.2 57 +2 +2 1021.4 943.3
СВ 4 16 км 2/0 7500 м
[верхняя]
+6.1 -2.8 53 +3 +3 1021.4 943.3 +5.6 +7.8
В 4 16 км 2/0 7500 м
[верхняя]
+5.0 -2.8 57 +1 +1 1021.6 943.3
СВ 5 16 км 2/0 7500 м
[верхняя]
+6.1 -3.3 51 +2 +2 1022.0 943.6
СВ 4 16 км 2/0 7500 м
[верхняя]
+5.6 -3.9 50 +2 +2 1022.3 943.9
СВ 4 16 км 2/0 7500 м
[верхняя]
+7.2 -3.9 45 +4 +4 1022.7 944.6
В 4 16 км 2/0 7500 м
[верхняя]
+8.9 -3.9 40 +6 +7 1023.3 945.2
СВ 4 16 км 2/0 7500 м
[верхняя]
+10.0 -3.9 37 +8 +9 1023.3 945.2 +5.0 +10.0
СВ 4 16 км 2/0 7500 м
[верхняя]
+11.1 -3.9 35 +9 +11 1022.5 944.6
СВ 4 16 км 2/0 7500 м
[верхняя]
+11.7 -3.9 33 +10 +14 1021.0 943.3
СВ 3 16 км 2/0 5400 м
[средняя верхняя]
+12.2 -4.4 31 +11 +15 1019.9 942.1
СВ 4 16 км 2/0 7500 м
[верхняя]
+12.8 -4.4 30 +11 +14 1019.6 941.7
СВ 3 16 км 2/0 7500 м
[верхняя]
+12.8 -5.0 29 +12 +14 1019.7 942.1
Местоположение метеостанции McCarran International Airport: широта 36.0719 долгота -115.1634 высота над уровнем моря 664 м.
В архиве по умолчанию представлена погода в Лас-Вегасе за последние 1-2 суток. Обновление информации о фактической погоде в базе происходит ежечасно! Архивные данные за месяц целиком и за предыдущие месяцы Вы можете получить, выбрав интересующий диапазон дат из раскрывающегося списка и нажав кнопку "Ввод!".
Внимание! Архив погоды МЕТАР в базе сайта по станциям, не включенным в климатический монитор, хранится не более 60 дней. Нет смысла пытаться выбрать более раннюю дату.
*Определитесь, кто Вы:
Внимание! Время в таблицах - всемирное. Для получения местного времени необходимо прибавить поправку, которая равна ч.
Смотрите также архив погоды в соседних городах и на ближайших метеорологических станциях:
Партнеры нашего сайта:      
Пояснения к столбцам:
  • Ветер - указаны скорость ветра в м/с - средняя за 10 мин, порывы в срок и между сроками (в фигурных скобках) и направление, откуда дует ветер: С - северный,
  • СВ - северо-восточный, В - восточный, ЮВ - юго-восточный, Ю - южный, ЮЗ - юго-западный, З - западный, СЗ - северо-западный.
  • Видимость - горизонтальная дальность видимости в метрах или километрах. При видимости от 1 до 10 км при отсутствии осадков обычно наблюдается дымка, при ухудшении видимости до 1 км и менее - туман. В сухую погоду видимость может ухудшаться дымом, пылью или мглою.
  • Явления - указаны атмосферные явления, наблюдавшиеся в срок или в последний час перед сроком; фигурными скобками обозначены явления, наблюдавшиеся между сроками (за 1-3 часа до срока); квадратными скобками обозначены град или гололедные отложения с указанием их диаметра в мм.
  • Облачность - указаны через наклонную черту общая и нижняя облачность в баллах и высота нижней границы облаков в метрах; квадратными скобками обозначены формы облаков: Ci - перистые, Cs - перисто-слоистые, Cc - перисто-кучевые, Ac - высококучевые, As - высокослоистые, Sc - слоисто-кучевые, Ns - слоисто-дождевые, Cu - кучевые, Cb - кучево-дождевые. Подробнее классификацию облаков см. в Атласе облаков (PDF).
  • T - Температура воздуха - температура, измеренная на высоте 2 м над землей.
  • Td - Температура точки росы - температура, при понижении до которой содержащийся в воздухе водяной пар достигнет насыщения.
  • f - Относительная влажность воздуха - влажноcть воздуха, измеренная на высоте 2 м над землей.
  • Te - Эффективная температура - температура, которую ощущает одетый по сезону человек в тени. Характеристика душности погоды. При расчете учитывается влияние влажности воздуха и скорости ветра на теплоощущения человека.
  • Tes - Эффективная температура на солнце - температура, которую ощущает человек, с поправкой на солнечный нагрев. Характеристика знойности погоды. Зависит от высоты солнца над горизонтом, облачности и скорости ветра. Ночью, в пасмурную погоду, а также при ветре 12 м/с и более поправка равна нулю.
  • P - Атмосферное давление - приведенное к уровню моря атмосферное давление.
  • Po - Атмосферное давление - измеренное на уровне метеостанции атмосферное давление.
  • Tmin - Минимальная температура - минимум температуры воздуха на высоте 2 м над землей.
  • Tmax - Максимальная температура - максимум температуры воздуха на высоте 2 м над землей.
  • R - Количество осадков - Количество выпавших осадков за период времени, мм. При наведении курсора мыши на число - период времени, за который выпало указанное количество осадков.
  • R24 - Количество осадков - Количество выпавших осадков за 24 часа, мм.
  • S - Снежный покров - Высота снежного покрова, см. При наведении курсора мыши на число - состояние снежного покрова и степень покрытия местности в баллах.